Regional Weather Roundup
Issued by NWS

Home | Current Version | Previous Version | Graphics & Text | Print | Product List | Glossary On
Versions: 1 2 3 4 5 6 7 8 9 10 11 12 13 14 15 16 17 18 19 20 21 22 23 24 25 26 27 28 29 30 31 32 33 34 35 36 37 38 39 40 41 42 43 44 45 46 47 48 49 50
000
ASUS43 KLSX 251207
RWRMO

WEATHER SUMMARY FOR MISSOURI
NATIONAL WEATHER SERVICE SPRINGFIELD MO
700 AM CDT TUE APR 25 2017

NOTE: "FAIR" INDICATES FEW OR NO CLOUDS BELOW 12,000 FEET WITH NO
       SIGNIFICANT WEATHER AND/OR OBSTRUCTIONS TO VISIBILITY.
       CURRENT SKY AND/OR WEATHER CONDITIONS ARE NOT AVAILABLE FOR
       CHILLICOTHE AND FARMINGTON.

MOZ001>031-035>038-043-044-053-054-251300-
...NORTHERN AND WESTERN MISSOURI...

CITY           SKY/WX    TMP DP  RH WIND       PRES   REMARKS
KANSAS CTY INT CLOUDY    60  47  61 SE10      29.50S
6HR MIN TEMP:  60; 6HR MAX TEMP:  62;

KANSAS C DTWN  CLOUDY    62  46  55 VRB6      29.49F
6HR MIN TEMP:  61; 6HR MAX TEMP:  66; 6HR PCP: TRACE;

LEE`S SUMMIT   CLOUDY    58  45  62 SE9       29.51R
6HR MIN TEMP:  57; 6HR MAX TEMP:  63; 6HR PCP: TRACE;

ST JOSEPH      CLOUDY    60  51  72 MISG      29.49R
6HR MIN TEMP:  57; 6HR MAX TEMP:  62; 6HR PCP: TRACE;

CHILLICOTHE      N/A     57  41  55 SE5       29.55F
6HR MIN TEMP:  53; 6HR MAX TEMP:  57;

KIRKSVILLE     CLOUDY    52  32  46 S6        29.61R
6HR MIN TEMP:  47; 6HR MAX TEMP:  53;


$$
MOZ066>068-077>081-088>096-101>105-251300-
...SOUTHWEST MISSOURI...

CITY           SKY/WX    TMP DP  RH WIND       PRES   REMARKS
SPRINGFIELD    CLEAR     55  43  63 SE14      29.58F
6HR MIN TEMP:  54; 6HR MAX TEMP:  60;

JOPLIN         CLOUDY    60  45  57 SE15G22   29.50F
6HR MIN TEMP:  55; 6HR MAX TEMP:  60;

BRANSON        MOCLDY    52  43  71 CALM      29.64R

$$
MOZ032>034-039>042-045>050-055>058-069>072-251300-
...CENTRAL MISSOURI...

CITY           SKY/WX    TMP DP  RH WIND       PRES   REMARKS
COLUMBIA       CLOUDY    55  45  68 SE7       29.62R
6HR MIN TEMP:  53; 6HR MAX TEMP:  57;

JEFFERSON CITY MOCLDY    55  44  66 E3        29.61F
6HR MIN TEMP:  53; 6HR MAX TEMP:  60;

ROLLA          CLOUDY    58  45  62 S12       29.62S
6HR MIN TEMP:  54; 6HR MAX TEMP:  58;

SEDALIA        CLOUDY    58  44  60 SE8       29.59S
6HR MIN TEMP:  55; 6HR MAX TEMP:  60;

WHITEMAN AFB   DRIZZLE   57  44  62 SE9       29.53F
OSAGE BEACH    CLOUDY    57  44  62 S8        29.61F

$$
MOZ051-052-059>065-251300-
...EAST CENTRAL MISSOURI...

CITY           SKY/WX    TMP DP  RH WIND       PRES   REMARKS
ST LOUIS INTL  MOCLDY    60  49  66 SE9       29.68S
6HR MIN TEMP:  58; 6HR MAX TEMP:  63;

SPIRIT OF STL  CLOUDY    51  49  92 E5        29.66F
6HR MIN TEMP:  48; 6HR MAX TEMP:  61;

ST CHARLES     CLEAR     51  46  83 E8        29.67S
6HR MIN TEMP:  49; 6HR MAX TEMP:  55;


$$
MOZ072>076-082>087-097>100-106>115-251300-
...SOUTH CENTRAL AND SOUTHEAST MISSOURI...

CITY           SKY/WX    TMP DP  RH WIND       PRES   REMARKS
CAPE GIRARDEAU CLEAR     54  52  93 CALM      29.73R FOG
6HR MIN TEMP:  52; 6HR MAX TEMP:  56;

FARMINGTON     CLEAR     54  51  90 SE6       29.71R
6HR MIN TEMP:  48; 6HR MAX TEMP:  57;

POPLAR BLUFF   CLEAR     52  52 100 CALM      29.72R
6HR MIN TEMP:  51; 6HR MAX TEMP:  56;

WEST PLAINS    CLEAR     51  45  79 SE5       29.68F
6HR MIN TEMP:  50; 6HR MAX TEMP:  58;


$$



USA.gov is the U.S. government's official web portal to all federal, state and local government web resources and services.